This demonstration page uses our WeatherBlox Daily Observations layout. Learn more.

Left ArrowRight Arrow

53.62937, 11.41316

Hourly Observations for January 21, 2016

Temp ( °F °C ) Dew Point ( °F °C ) Humidity (%) Winds ( mph kmh ) Pressure ( in mb ) Visibility ( mi km ) Precip ( " mm )
5:20 am 05:20 Cloudy 27 -3 21 -6 80 80 W 6 9 30.21 1023 30 48 N/A
5:50 am 05:50 Mostly Clear 19 -7 18 -8 93 93 W 6 9 30.21 1023 30 48 N/A
6:20 am 06:20 Mostly Clear 19 -7 18 -8 93 93 W 7 11 30.24 1024 7 11 N/A
6:50 am 06:50 Mostly Clear 21 -6 19 -7 93 93 WSW 6 9 30.24 1024 7 11 N/A
7:20 am 07:20 Mostly Clear 19 -7 18 -8 93 93 WSW 6 9 30.27 1025 7 11 N/A
7:50 am 07:50 Partly Cloudy 16 -9 14 -10 93 93 WSW 5 7 30.27 1025 6 9 N/A
8:20 am 08:20 Mostly Sunny 18 -8 16 -9 93 93 WSW 6 9 30.27 1025 7 11 N/A
8:50 am 08:50 Mostly Sunny 16 -9 14 -10 93 93 W 6 9 30.30 1026 7 11 N/A
9:20 am 09:20 Mostly Sunny 19 -7 18 -8 93 93 WSW 6 9 30.30 1026 7 11 N/A
9:50 am 09:50 Mostly Sunny 19 -7 18 -8 93 93 WSW 5 7 30.33 1027 7 11 N/A
10:20 am 10:20 Mostly Sunny 19 -7 18 -8 93 93 WSW 6 9 30.33 1027 7 11 N/A
10:50 am 10:50 Mostly Sunny 21 -6 19 -7 93 93 WSW 6 9 30.33 1027 7 11 N/A
11:20 am 11:20 Mostly Sunny 23 -5 19 -7 86 86 WSW 7 11 30.36 1028 7 11 N/A
11:50 am 11:50 Mostly Sunny 25 -4 19 -7 80 80 WSW 7 11 30.36 1028 7 11 N/A
12:20 pm 12:20 Mostly Sunny 25 -4 19 -7 80 80 WSW 8 13 30.36 1028 7 11 N/A
12:50 pm 12:50 Mostly Sunny 25 -4 21 -6 86 86 WSW 9 15 30.36 1028 7 11 N/A
1:20 pm 13:20 Mostly Sunny 25 -4 21 -6 86 86 WSW 9 15 30.36 1028 7 11 N/A
1:50 pm 13:50 Mostly Sunny 25 -4 21 -6 86 86 WSW 9 15 30.36 1028 30 48 N/A
2:20 pm 14:20 Mostly Sunny 25 -4 19 -7 80 80 WSW 7 11 30.36 1028 30 48 N/A
2:50 pm 14:50 Mostly Sunny 25 -4 21 -6 86 86 WSW 5 7 30.36 1028 30 48 N/A
3:20 pm 15:20 Mostly Sunny 23 -5 19 -7 86 86 WSW 7 11 30.36 1028 7 11 N/A
3:50 pm 15:50 Mostly Sunny 25 -4 21 -6 86 86 SW 6 9 30.36 1028 7 11 N/A
4:20 pm 16:20 Mostly Sunny 23 -5 19 -7 86 86 SSW 5 7 30.36 1028 7 11 N/A
4:50 pm 16:50 Mostly Clear 21 -6 19 -7 93 93 SSW 5 7 30.39 1029 30 48 N/A
5:20 pm 17:20 Partly Cloudy 23 -5 21 -6 93 93 WSW 7 11 30.39 1029 30 48 N/A
5:50 pm 17:50 Partly Cloudy 23 -5 21 -6 93 93 SSW 8 13 30.39 1029 30 48 N/A

Powered by AerisWeather